Location: Newark
(48.8833°N, 0.9236°W)
Time: 05:14:13
(UTC+00:00)

Vanguard 1 - All Passes

Search period start: 22 November 2019 00:00
Search period end: 02 December 2019 00:00
Orbit: 652 x 3831 km, 34.2° (Epoch: 20 November)

Date Brightness Start Highest point End Pass type
(mag) Time Alt. Az. Time Alt. Az. Time Alt. Az.
22 Nov - 08:46:51 10° SSW 08:55:23 21° SSE 09:01:16 10° ESE daylight
22 Nov - 11:08:28 10° SW 11:15:37 25° S 11:20:28 10° SE daylight
22 Nov - 13:31:38 10° SW 13:34:42 14° SSW 13:37:19 10° S daylight
23 Nov - 06:48:57 10° S 06:55:06 13° SSE 07:00:06 10° SE visible
23 Nov - 09:06:48 10° SW 09:16:16 25° S 09:22:28 10° ESE daylight
23 Nov - 11:29:20 10° WSW 11:36:20 25° S 11:41:05 10° SE daylight
23 Nov - 13:53:48 10° SW 13:55:10 11° SSW 13:56:27 10° SSW daylight
24 Nov - 07:06:50 10° SSW 07:16:01 18° SSE 07:22:45 10° ESE daylight
24 Nov - 09:27:08 10° SW 09:37:08 28° S 09:43:27 10° ESE daylight
24 Nov - 11:50:21 10° WSW 11:56:59 24° SSW 12:01:34 10° SE daylight
25 Nov - 07:25:54 10° SSW 07:36:57 23° SSE 07:44:29 10° ESE daylight
25 Nov - 09:47:45 10° SW 09:57:57 30° S 10:04:16 10° ESE daylight
25 Nov - 12:11:31 10° WSW 12:17:34 21° SSW 12:21:54 10° SSE daylight
26 Nov - 05:29:03 10° S 05:36:05 13° SSE 05:41:57 10° ESE visible
26 Nov - 07:45:36 10° SSW 07:57:53 27° SSE 08:05:48 10° ESE daylight
26 Nov - 10:08:34 10° WSW 10:18:44 31° S 10:24:59 10° SE daylight
26 Nov - 12:32:53 10° WSW 12:38:04 18° SSW 12:41:58 10° SSE daylight
27 Nov - 05:46:11 10° S 05:56:59 18° SSE 06:05:08 10° ESE visible
27 Nov - 08:05:45 10° SW 08:18:48 31° S 08:26:53 10° ESE daylight
27 Nov - 10:29:33 10° WSW 10:39:28 31° S 10:45:35 10° SE daylight
27 Nov - 12:54:36 10° WSW 12:58:29 15° SSW 13:01:38 10° S daylight
28 Nov - 06:04:46 10° SSW 06:17:54 23° SSE 06:27:09 10° ESE visible
28 Nov - 08:26:13 10° SW 08:39:41 34° S 08:47:47 10° ESE daylight
28 Nov - 10:50:40 10° WSW 11:00:08 30° SSW 11:06:04 10° SE daylight
28 Nov - 13:17:27 10° SW 13:18:49 11° SW 13:20:04 10° SSW daylight
29 Nov - 04:10:20 10° SSE 04:16:36 12° SE 04:22:10 10° ESE visible
29 Nov - 06:24:06 10° SSW 06:38:50 28° SSE 06:48:39 10° ESE visible
29 Nov - 08:46:57 10° WSW 09:00:33 37° S 09:08:35 10° ESE daylight
29 Nov - 11:11:55 10° WSW 11:20:43 27° SSW 11:26:24 10° SSE daylight
30 Nov - 04:26:06 10° S 04:37:25 17° SE 04:46:31 10° ESE visible
30 Nov - 06:43:58 10° SW 06:59:46 33° SSE 07:09:53 10° ESE visible
30 Nov - 09:07:53 10° WSW 09:21:23 38° S 09:29:17 10° ESE daylight
30 Nov - 11:33:19 10° WSW 11:41:13 23° SSW 11:46:33 10° SSE daylight
01 Dec - 04:43:59 10° S 04:58:15 23° SSE 05:09:01 10° ESE visible
01 Dec - 07:04:14 10° SW 07:20:42 37° SSE 07:30:54 10° ESE visible
01 Dec - 09:28:58 10° WSW 09:42:09 37° S 09:49:53 10° SE daylight
01 Dec - 11:54:57 10° WSW 12:01:36 19° SW 12:06:23 10° S daylight
